Torna al catalogo

CHINASAT 1D

AttivoComunicazioniGEO
NORAD 49505·PAYLOAD·🇨🇳 China

Lanciato Nov 26, 2021 da Xichang Satellite Launch Center

Loading…

TLE

AggiornatoSource: Space-Track

Epoca: Sep 14, 2026, 14:25 UTC

1 49505U 21114A   26257.60092779 -.00000344  00000-0  00000-0 0  9996
2 49505   0.0612 304.2141 0001268 318.7501  77.1395  1.00271196 17716

Traccia CHINASAT 1D in tempo reale con AllMySat

Download on the App Store